Total_Precipitation_Accumulation
0.05 0.09 0.15 0.18 0.18 0.16 0.13 0.11 0.17 0.21 0.41 0.46 0.57 0.74 0.93 0.99 0.86 0.77 0.84 0.87 0.87 0.95 1.13 1.27 1.45 1.52 1.52 1.56 1.63 1.78 1.93 2.05 2.32 2.50 2.50 2.36 2.30 2.36 2.39 2.46 2.40 2.59 2.60 2.59
0.05 0.08 0.14 0.17 0.18 0.14 0.10 0.10 0.14 0.20 0.34 0.42 0.57 0.69 0.81 0.78 0.75 0.83 0.87 0.87 0.82 0.91 1.13 1.20 1.26 1.38 1.43 1.50 1.59 1.69 1.82 1.98 2.25 2.50 2.64 2.58 2.59 2.73 2.74 2.69 2.77 2.88 2.85 2.84
0.08 0.12 0.14 0.23 0.19 0.15 0.15 0.14 0.17 0.26 0.32 0.39 0.52 0.68 0.84 0.87 0.87 0.92 0.93 0.91 0.90 0.88 1.00 1.23 1.19 1.23 1.38 1.49 1.67 1.86 2.13 2.34 2.48 2.70 2.85 2.79 2.69 2.70 2.72 2.77 2.76 2.82 2.86 2.94
0.14 0.17 0.27 0.27 0.23 0.23 0.24 0.28 0.29 0.33 0.40 0.48 0.58 0.72 0.85 0.92 0.91 1.01 1.11 1.20 1.24 1.28 1.28 1.38 1.36 1.38 1.48 1.64 1.85 1.97 2.10 2.32 2.49 2.69 2.80 2.87 2.89 2.83 2.90 3.03 3.06 3.08 3.07 3.05
0.24 0.27 0.31 0.33 0.33 0.36 0.40 0.52 0.56 0.62 0.67 0.68 0.72 0.77 0.92 1.05 1.14 1.24 1.22 1.27 1.38 1.45 1.48 1.50 1.58 1.73 1.92 2.00 2.18 2.36 2.47 2.64 2.73 2.76 2.83 2.87 2.91 3.05 3.17 3.29 3.29 3.32 3.29 3.25
0.35 0.44 0.52 0.52 0.51 0.47 0.56 0.91 0.80 0.88 0.98 0.98 1.05 1.30 1.36 1.35 1.35 1.39 1.37 1.40 1.48 1.52 1.57 1.78 1.84 1.91 2.10 2.33 2.50 2.68 2.85 2.95 3.02 3.07 3.07 3.03 3.04 3.16 3.25 3.32 3.35 3.38 3.26 3.26
0.48 0.51 0.55 0.56 0.56 0.57 1.00 1.37 1.29 1.29 1.32 1.25 1.40 1.50 1.38 1.30 1.43 1.49 1.55 1.61 1.64 1.68 1.78 1.92 1.99 2.07 2.25 2.53 2.78 2.98 3.02 3.07 3.13 3.23 3.40 3.53 3.56 3.38 3.24 3.25 3.35 3.39 3.33 3.36
0.74 0.90 0.97 0.68 0.76 1.13 1.41 1.34 1.57 1.45 1.30 1.33 1.34 1.29 1.24 1.26 1.43 1.61 1.74 1.79 1.82 1.86 1.90 1.95 2.08 2.22 2.32 2.58 2.72 2.92 2.96 3.08 3.17 3.21 3.16 3.18 3.48 3.57 3.54 3.42 3.29 3.27 3.32 3.23
1.08 1.21 1.09 0.91 0.97 1.24 1.29 1.30 1.44 1.44 1.25 1.22 1.24 1.18 1.20 1.27 1.39 1.56 1.70 1.76 1.75 1.82 1.95 1.95 1.98 2.18 2.46 2.54 2.62 2.66 2.79 2.92 3.13 3.24 3.31 3.29 3.30 3.40 3.42 3.34 3.13 2.90 2.92 2.95
1.42 1.45 1.30 1.12 1.02 1.10 1.17 1.24 1.29 1.42 1.43 1.31 1.27 1.22 1.28 1.32 1.41 1.63 1.72 1.72 1.78 1.74 1.77 1.89 1.99 2.19 2.30 2.34 2.49 2.75 2.87 2.91 2.98 3.07 3.12 3.20 3.30 3.27 3.22 3.19 3.11 2.93 2.90 2.91
1.94 2.00 1.84 1.67 1.42 1.30 1.27 1.30 1.39 1.50 1.56 1.61 1.57 1.49 1.52 1.46 1.49 1.62 1.67 1.64 1.73 1.83 1.86 1.93 2.00 2.17 2.33 2.38 2.44 2.59 2.68 2.66 2.74 2.89 2.98 3.06 3.20 3.27 3.12 3.01 3.02 2.91 2.94 3.10
2.33 2.16 2.16 2.02 1.66 1.49 1.50 1.60 1.59 1.60 1.64 1.61 1.61 1.59 1.61 1.65 1.57 1.50 1.48 1.61 1.76 1.84 1.92 1.98 2.03 2.11 2.18 2.26 2.40 2.54 2.61 2.64 2.63 2.67 2.82 2.91 2.88 2.94 2.97 2.73 2.66 2.48 2.51 2.59
1.96 1.97 2.03 1.92 1.75 1.64 1.67 1.66 1.71 1.77 1.73 1.64 1.59 1.58 1.59 1.65 1.70 1.61 1.56 1.60 1.73 1.78 1.81 1.87 1.90 1.96 1.97 2.05 2.33 2.62 2.70 2.79 2.74 2.54 2.49 2.54 2.57 2.54 2.55 2.46 2.20 2.06 2.02 1.95
1.97 2.00 2.10 1.99 1.95 1.79 1.77 1.67 1.61 1.59 1.53 1.53 1.58 1.59 1.54 1.54 1.65 1.76 1.73 1.74 1.87 1.93 1.80 1.72 1.73 1.79 1.85 1.91 2.05 2.27 2.35 2.44 2.41 2.27 2.19 2.16 2.18 2.19 2.09 2.10 2.01 1.84 1.78 1.75
1.83 1.83 1.95 1.88 1.84 1.84 1.87 1.83 1.72 1.61 1.49 1.55 1.61 1.61 1.65 1.73 1.82 1.94 1.96 2.01 2.08 2.08 1.92 1.75 1.69 1.73 1.79 1.88 2.00 2.06 2.15 2.17 2.11 2.11 2.14 2.17 2.24 2.28 2.19 2.10 2.09 2.02 1.89 1.72
1.70 1.76 1.76 1.83 1.98 1.87 1.80 1.84 1.86 1.77 1.62 1.62 1.68 1.65 1.66 1.76 1.90 1.94 1.96 2.13 2.32 2.33 2.17 2.04 1.89 1.79 1.74 1.88 2.05 2.11 2.12 2.29 2.22 2.06 2.05 2.21 2.33 2.30 2.32 2.37 2.31 2.34 2.31 1.99
1.83 1.88 1.79 1.85 1.97 2.00 1.95 1.87 1.90 1.86 1.79 1.80 1.81 1.70 1.70 1.79 1.93 2.03 1.94 1.92 2.03 2.13 2.12 2.05 1.93 1.81 1.82 1.88 1.97 2.11 2.11 2.15 2.16 2.02 2.02 2.13 2.23 2.32 2.33 2.37 2.45 2.45 2.41 2.22
1.70 1.62 1.59 1.66 1.71 1.81 1.90 1.93 1.94 1.85 1.78 1.76 1.80 1.77 1.78 1.88 2.02 2.06 1.97 1.86 1.80 1.85 1.91 1.86 1.79 1.75 1.79 1.82 1.91 2.07 2.09 2.06 2.05 2.06 2.10 2.16 2.19 2.33 2.49 2.51 2.52 2.57 2.44 2.36
1.67 1.55 1.49 1.50 1.48 1.55 1.69 1.81 1.85 1.80 1.71 1.70 1.77 1.78 1.74 1.74 1.86 1.97 1.96 2.04 2.07 2.00 1.86 1.73 1.69 1.60 1.64 1.71 1.74 1.80 1.84 1.90 2.02 2.08 2.11 2.16 2.20 2.26 2.36 2.41 2.46 2.51 2.38 2.35
1.81 1.75 1.62 1.52 1.49 1.48 1.56 1.61 1.70 1.75 1.69 1.67 1.69 1.73 1.71 1.69 1.79 2.02 2.15 2.21 2.24 2.12 1.95 1.78 1.50 1.43 1.48 1.56 1.54 1.44 1.47 1.55 1.61 1.73 1.86 1.95 2.00 2.10 2.09 2.08 2.14 2.21 2.17 2.18
1.96 1.88 1.79 1.70 1.70 1.60 1.57 1.53 1.57 1.69 1.72 1.76 1.84 1.89 1.80 1.71 1.74 1.99 2.36 2.44 2.26 2.04 1.90 1.84 1.50 1.30 1.19 1.28 1.40 1.39 1.45 1.46 1.46 1.56 1.63 1.72 1.81 1.89 1.99 2.05 2.05 2.03 2.04 2.03
2.05 1.96 1.88 1.77 1.69 1.66 1.62 1.57 1.58 1.66 1.69 1.72 1.71 1.71 1.75 1.69 1.70 1.93 2.17 2.36 2.20 2.02 1.66 1.53 1.40 1.21 1.15 1.12 1.11 1.24 1.35 1.41 1.42 1.49 1.55 1.60 1.66 1.73 1.83 1.86 1.85 1.79 1.79 1.84
2.11 1.97 1.90 1.79 1.71 1.67 1.64 1.65 1.65 1.69 1.67 1.61 1.57 1.66 1.77 1.80 1.78 1.97 2.09 1.85 1.67 1.70 1.50 1.42 1.34 1.20 1.11 1.07 1.10 1.12 1.19 1.28 1.32 1.34 1.37 1.42 1.51 1.58 1.62 1.66 1.68 1.60 1.61 1.63
1.99 2.03 2.08 2.04 1.83 1.73 1.76 1.74 1.72 1.72 1.60 1.58 1.58 1.63 1.71 1.76 1.73 1.65 1.67 1.66 1.62 1.56 1.41 1.42 1.30 1.12 1.01 0.93 1.01 1.11 1.18 1.24 1.26 1.26 1.26 1.33 1.41 1.47 1.55 1.61 1.65 1.60 1.54 1.47
1.92 1.92 1.97 1.98 1.88 1.80 1.75 1.73 1.77 1.77 1.68 1.66 1.61 1.58 1.55 1.58 1.62 1.59 1.54 1.52 1.55 1.46 1.33 1.36 1.29 1.25 1.14 1.10 1.13 1.19 1.22 1.29 1.33 1.32 1.34 1.38 1.43 1.49 1.53 1.57 1.59 1.55 1.50 1.48
1.93 1.87 1.87 1.84 1.75 1.77 1.78 1.80 1.86 1.84 1.74 1.68 1.66 1.61 1.53 1.45 1.47 1.53 1.62 1.57 1.40 1.34 1.25 1.25 1.23 1.25 1.21 1.25 1.31 1.30 1.26 1.30 1.34 1.31 1.36 1.49 1.54 1.56 1.53 1.46 1.46 1.48 1.41 1.34
1.93 1.87 1.87 1.80 1.74 1.69 1.70 1.71 1.78 1.85 1.76 1.65 1.66 1.64 1.61 1.62 1.65 1.65 1.66 1.64 1.50 1.37 1.28 1.26 1.21 1.13 1.13 1.17 1.22 1.28 1.29 1.30 1.30 1.32 1.36 1.43 1.46 1.44 1.39 1.37 1.40 1.40 1.32 1.28